Regional Weather Roundup
Issued by NWS State College, PA

Home | Current Version | Previous Version | Text Only | Print | Product List | Glossary On
Versions: 1 2 3 4 5 6 7 8 9 10 11 12 13 14 15 16 17 18 19 20 21 22 23 24 25 26 27 28 29 30 31 32 33 34 35 36 37 38 39 40 41 42 43 44 45 46 47 48 49 50
000
ASUS41 KCTP 301710
RWRCTP

REGIONAL WEATHER ROUNDUP
NATIONAL WEATHER SERVICE STATE COLLEGE PA
100 PM EDT TUE JUN 30 2015

Note: "fair" indicates few or no clouds below 12,000 feet with no
significant weather and/or obstructions to visibility.

* = STATION THAT DOES NOT REPORT PRECIPITATION /E.G. RAIN...SNOW...ETC/
    THUNDER OR FOG.

PAZ002>004-007>009-013>016-020>023-029>032-301800-
WESTERN PENNSYLVANIA

CITY           SKY/WX    TMP DP  RH WIND       PRES   REMARKS
ERIE           PTSUNNY   70  61  73 W13       29.81S
MEADVILLE      LGT RAIN  71  61  70 SW9       29.85S
FRANKLIN*      CLOUDY    66  61  82 SW7       29.87S
NEW CASTLE     PTSUNNY   73  65  76 CALM      29.85F
BEAVER COUNTY  TSTM      66  64  94 W5        29.86S
BUTLER*        CLOUDY    68  63  83 NW7G17    29.88R THUNDER
PITTSBURGH INT PTSUNNY   74  62  66 SW13G20   29.85F
PITTSBURGH     PTSUNNY   75  61  61 SW14      29.86F
INDIANA*       CLOUDY    73  66  78 W10G17    29.91F
LATROBE        PTSUNNY   73  66  78 W16       29.89F
WASHINGTON CO* NOT AVBL
$$

PAZ004>006-010>012-017>019-024>028-033>037-041-042-045-046-049>053-301800-
CENTRAL PENNSYLVANIA

CITY           SKY/WX    TMP DP  RH WIND       PRES   REMARKS
BRADFORD       CLOUDY    67  60  78 SW8       29.88S
DUBOIS         CLOUDY    71  62  73 SW9       29.87F
CLEARFIELD     CLOUDY    69  64  84 S3        29.89F
JOHNSTOWN      PTSUNNY   71  60  68 W10       29.91F
ALTOONA        PTSUNNY   74  66  76 S7        29.90F
STATE COLLEGE  CLOUDY    72  64  78 SW10      29.90F
WILLIAMSPORT   PTSUNNY   74  64  71 S8        29.86F
SELINSGROVE    CLOUDY    75  67  76 VRB3      29.89F
FT INDIANTOWN  PTSUNNY   75  69  80 VRB5      29.88F
CAPITAL CITY   PTSUNNY   78  67  68 SW7       29.86F
HARRISBURG     MOSUNNY   80  68  66 S10G22    29.86F
YORK           MOSUNNY   81  69  67 S10G22    29.88F
$$

PAZ038>040-043-044-047-048-054-055-060>062-067>071-301800-
EASTERN PENNSYLVANIA

CITY           SKY/WX    TMP DP  RH WIND       PRES   REMARKS
SCRANTON       CLOUDY    72  65  78 S5        29.91F
MOUNT POCONO   CLOUDY    64  60  87 SE5       29.97F
ALLENTOWN      PTSUNNY   76  69  79 N5        29.90F
QUAKERTOWN*    MOSUNNY   81  66  61 S12G17    29.92F
READING        PTSUNNY   77  69  76 SE5       29.87F
LANCASTER      LGT RAIN  76  70  82 S16G22    29.88F
COATESVILLE    PTSUNNY   77  68  73 S9G20     29.91F
POTTSTOWN      CLOUDY    80  68  66 S8        29.91F
BLUE BELL      MOSUNNY   82  68  61 S12G20    29.90F
DOYLESTOWN     MOSUNNY   79  62  56 S13G21    29.90F
WILLOW GROVE   NOT AVBL
NORTH PHILA    MOSUNNY   84  59  42 SW14G21   29.92F
PHILADELPHIA   PTSUNNY   84  67  56 S14G24    29.91F
$$



USA.gov is the U.S. government's official web portal to all federal, state and local government web resources and services.